Regional Weather Roundup
Issued by NWS Little Rock, AR

Home | Current Version | Previous Version | Graphics & Text | Print | Product List | Glossary On
Versions: 1 2 3 4 5 6 7 8 9 10 11 12 13 14 15 16 17 18 19 20 21 22 23 24 25 26 27 28 29 30 31 32 33 34 35 36 37 38 39 40 41 42 43 44 45 46 47 48 49 50
000
ASUS44 KLZK 251705
RWRLZK

WEATHER ROUNDUP FOR ARKANSAS
NATIONAL WEATHER SERVICE LITTLE ROCK AR
1100 AM CST TUE NOV 25 2014

NOTE: "FAIR" INDICATES FEW OR NO CLOUDS BELOW 12,000 FEET WITH NO
SIGNIFICANT WEATHER AND/OR OBSTRUCTIONS TO VISIBILITY.

ARZ001-003-010-029-251800-
NORTHWEST ARKANSAS

CITY           SKY/WX    TMP DP  RH WIND       PRES   REMARKS
FAYETTEVILLE   SUNNY     41  13  31 VRB3      30.27F
FORT SMITH     SUNNY     47  16  29 W6        30.31F
HARRISON       SUNNY     39  19  44 NW6       30.25F
BENTONVILLE    SUNNY     39  18  41 CALM      30.28F
ROGERS         SUNNY     38  16  40 SW3       30.27S
SILOAM SPGS    SUNNY     39  16  38 SW3       30.29F
HIGHFILL       SUNNY     40  17  39 CALM      30.27F
SPRINGDALE     SUNNY     39  16  38 CALM      30.29S
$$

ARZ004-005-016-251800-
NORTH CENTRAL ARKANSAS

CITY           SKY/WX    TMP DP  RH WIND       PRES   REMARKS
BATESVILLE     SUNNY     43  21  42 W10       30.25F
FLIPPIN        SUNNY     39  18  41 W6        30.28S
MTN HOME       SUNNY     38  19  46 SW6       30.26S
$$

ARZ040-041-251800-
WEST CENTRAL ARKANSAS

CITY           SKY/WX    TMP DP  RH WIND       PRES   REMARKS
MENA           SUNNY     50  23  34 CALM      30.28F
MOUNT IDA      SUNNY     50  22  33 VRB6      30.26F
$$

ARZ009-017-025-026-028-251800-
NORTHEAST ARKANSAS

CITY           SKY/WX    TMP DP  RH WIND       PRES   REMARKS
JONESBORO      SUNNY     41  24  51 NW9       30.25F
NEWPORT        SUNNY     44  21  40 W3        30.28F
WALNUT RIDGE   SUNNY     43  19  39 N9        30.25F
BLYTHEVILLE    SUNNY     57  28  33 NW13      30.25S HAZE
NW BLYTHEVILLE PTSUNNY   43  25  49 NW8       30.25
$$

ARZ022-023-033-042-044-251800-
CENTRAL ARKANSAS

CITY           SKY/WX    TMP DP  RH WIND       PRES   REMARKS
LITTLE ROCK    MOSUNNY   50  23  34 NW8       30.28F
N LITTLE ROCK  MOSUNNY   47  26  44 NW7       30.28F
JACKSONVILLE   SUNNY     48  22  36 W7        30.27F
SEARCY         SUNNY     48  18  30 NW6       30.28F
HOT SPRINGS    SUNNY     50  23  34 NW9       30.28F
RUSSELLVILLE   SUNNY     48  17  29 W8        30.29F
CLINTON        FAIR      46  18  31 NW7       30.29F
$$

ARZ036-251800-
EAST ARKANSAS

CITY           SKY/WX    TMP DP  RH WIND       PRES   REMARKS
WEST MEMPHIS   MOSUNNY   44  29  55 NW7       30.25S
$$

ARZ050-053-066-070-073-251800-
SOUTHWEST ARKANSAS

CITY           SKY/WX    TMP DP  RH WIND       PRES   REMARKS
ARKADELPHIA    FAIR      52  26  36 N6        30.29F
CAMDEN         MOSUNNY   48  32  53 CALM      30.30S
TEXARKANA      SUNNY     53  25  33 N5        30.30S
EL DORADO      CLOUDY    49  30  48 N6        30.30S
DE QUEEN       SUNNY     52  25  35 CALM      30.28F
$$

ARZ056-057-069-251800-
SOUTHEAST ARKANSAS

CITY           SKY/WX    TMP DP  RH WIND       PRES   REMARKS
PINE BLUFF     MOSUNNY   47  25  42 N8        30.28F
STUTTGART      MOSUNNY   46  23  39 NW8       30.28F
MONTICELLO     PTSUNNY   49  26  41 VRB5      30.28F

$$




USA.gov is the U.S. government's official web portal to all federal, state and local government web resources and services.